Showing default

SOYUZ MS-27, 63520

Orbit data source: Space-Track

SOYUZ MS-27, 63520 is a payload satellite owned by RKKE (CIS) in LEO that was launched on Tue, 08 Apr 2025 UTC via a SOYUZ-2-1A launch vehicle from the Tyuratam Missile And Space Complex (TTMTR). Payload-class satellites include a variety of spacecraft equipped with specific instruments for various scientific and technological missions. These include communications satellites like Starlink; space stations such as the ISS; scientific satellites like the Hubble; Earth observation satellites from companies like Planet Labs, Umbra, and HawkEye 360; GPS; miniature CubeSats for education and research; and military/defense satellites.

Loading next visibility...
Identifier
63520, 2025-072A
Orbit
LEO
Country
Flag of CISCIS
Related business
Manufacturer
RKKE
Mission
Operational Civil Spaceship
Bus & Motor
7K-S A48, SA
Mass
7,152 kg wet, 2,900 kg dry
Launch date (UTC)
2025-04-08 (5 months ago)
Launch vehicle
SOYUZ-2-1A
Launch site
Tyuratam Missile And Space Complex (TTMTR)
Object type
Payload
Rocket body
Debris
Shape & HBR
Cyl + Cone + Sphere + 2 Pan, 5.3 m
Radar Cross Section
25.344 m², Large (>1 m²)

Expand to show TLE details & history
Last TLE update: 12 hours ago

TLE from 12 hours ago
0 SOYUZ MS-27
1 63520U 25072A   25258.38319791  .00010865  00000-0  19592-3 0  9994
2 63520  51.6329 220.0184 0004332 341.8913  18.1921 15.50310585 20201
Epoch: 2025-09-15T09:11Z
TLE epoch observation values (Epoch: 2025-09-15T09:11:48.299Z)
Latitude
-0.00002°
Longitude
87.4785°
Altitude
413.763 km
Speed
7.666 km/s
True Right ascension
14h 40m 04s
True Declination
0° 00' 00"
Sunlit
Object was in daylight at epoch
Visualization orbit readout
Latitude
Unknown
Longitude
Unknown
Altitude
Unknown
Speed
Unknown
Apparent Right ascension
Unknown
Apparent Declination
Unknown
Sunlit
N/A
Visualization observer readout
Local Sidereal Time
13:30:15
Azimuth
Unknown
Elevation
Unknown
Doppler factor
Unknown
Orbital elements
Apogee altitude
419.271 km
Perigee altitude
413.384 km
Semi-major axis
6,794.465 km
Eccentricity
0.00043
Inclination
51.6329°
RAAN
220.0184°
Arg. of periapsis
341.8913°
True anomaly
18.20761°
Mean anomaly
18.1921°
Eccentric anomaly
18.19985°
Mean motion
3.87534 °/min
Orbital period
92.89 mins
BSTAR
0.00019592
Loading maneuver chart data...
Computing Atmospheric mass density...
Loading historical data...
Loading historical data...
Loading historical data...
Loading historical data...
Loading historical data...
Loading historical data...
Loading historical data...
Other satellites on launch #72 in the year 2025 (2025-04-08 UTC)

Documentation

Showing up to 5 results
|